Armorel, AR

11:48 PM CDT on September 27, 2016 (GMT -0500)
Blytheville Municipal

Weather History for KHKA - August, 2014

Change the Weather History Date:

Sunday, August 17, 2014

  Actual Average Record
Temperature  
Mean Temperature 81 °F -  
Max Temperature 91 °F 90 °F 105 °F (1954)
Min Temperature 71 °F 70 °F 57 °F (2004)
Cooling Degree Days 16    
Growing Degree Days 31 (Base 50)    
Moisture  
Dew Point 74 °F    
Average Humidity 86    
Maximum Humidity 97    
Minimum Humidity 61    
Precipitation  
Precipitation 2.47 in - - ()
Sea Level Pressure  
Sea Level Pressure 29.87 in    
Wind  
Wind Speed 11 mph (WSW)    
Max Wind Speed 47 mph    
Max Gust Speed 60 mph    
Visibility 8 miles    
Events Rain , Thunderstorm    
Averages and records for this station are not official NWS values.
T = Trace of Precipitation, MM = Missing Value Source: NWS Daily Summary

Daily Weather History Graph

Daily Weather History Graph

Search for Another Location

Airport or City:

Trip Planner

Search our weather history database for the weather conditions in past years. The results will help you decide how hot, cold, wet, or windy it might be!

Date:

Astronomy

Aug. 17, 2014 Rise Set
Actual Time 6:19 AM CDT 7:46 PM CDT
Civil Twilight 5:52 AM CDT 8:13 PM CDT
Nautical Twilight 5:19 AM CDT 8:45 PM CDT
Astronomical Twilight 4:45 AM CDT 9:19 PM CDT
Moon No Moon Rise 1:50 PM CDT (8/17)
Length of Visible Light 14h 21m
Length of Day
13h 27m
Waning Gibbous, 48% of the Moon is Illuminated
Aug 17
Waning Gibbous
Aug 25
New
Sep 2
First Quarter
Sep 8
Full
Sep 15
Last Quarter

Hourly Weather History & Observations

Time (CDT) Temp. Heat Index Dew Point Humidity Pressure Visibility Wind Dir Wind Speed Gust Speed Precip Events Conditions
12:53 AM 77.0 °F - 72.0 °F 84% 29.90 in 10.0 mi South 9.2 mph - N/A   Partly Cloudy
2:53 AM 79.0 °F - 73.0 °F 82% 29.87 in 10.0 mi SSW 8.1 mph - N/A   Clear
3:53 AM 79.0 °F - 73.0 °F 82% 29.86 in 10.0 mi SSW 9.2 mph - N/A   Clear
4:53 AM 78.1 °F - 73.0 °F 84% 29.86 in 10.0 mi SSW 12.7 mph - N/A   Clear
5:53 AM 79.0 °F - 73.9 °F 84% 29.88 in 10.0 mi SSW 12.7 mph - N/A   Mostly Cloudy
6:53 AM 78.1 °F - 73.9 °F 87% 29.89 in 10.0 mi SW 11.5 mph - N/A   Scattered Clouds
7:53 AM 80.1 °F 85.1 °F 75.0 °F 85% 29.88 in 10.0 mi SW 9.2 mph 18.4 mph N/A   Clear
8:53 AM 82.0 °F 89.4 °F 75.9 °F 82% 29.88 in 10.0 mi West 10.4 mph 17.3 mph N/A   Partly Cloudy
9:53 AM 84.9 °F 95.3 °F 77.0 °F 77% 29.88 in 10.0 mi West 9.2 mph - N/A   Clear
10:53 AM 87.1 °F 99.8 °F 78.1 °F 74% 29.88 in 10.0 mi WSW 8.1 mph - N/A   Partly Cloudy
11:53 AM 89.1 °F 101.4 °F 77.0 °F 67% 29.89 in 10.0 mi Variable 6.9 mph - N/A   Mostly Cloudy
12:53 PM 91.0 °F 104.2 °F 77.0 °F 63% 29.88 in 10.0 mi West 8.1 mph 18.4 mph N/A   Scattered Clouds
1:53 PM 91.0 °F 102.9 °F 75.9 °F 61% 29.86 in 10.0 mi WSW 11.5 mph 20.7 mph N/A   Clear
2:53 PM 91.9 °F 108.8 °F 79.0 °F 66% 29.84 in 10.0 mi SW 15.0 mph 21.9 mph N/A   Clear
3:35 PM 91.9 °F 107.3 °F 78.1 °F 64% 29.83 in 10.0 mi WSW 11.5 mph 21.9 mph N/A Thunderstorm Thunderstorm
3:53 PM 89.1 °F 98.0 °F 73.9 °F 61% 29.83 in 10.0 mi West 9.2 mph 19.6 mph N/A Thunderstorm Thunderstorm
4:19 PM 80.1 °F 85.8 °F 77.0 °F 90% 29.79 in 10.0 mi West 6.9 mph - 0.08 in   Mostly Cloudy
4:43 PM 81.0 °F 88.6 °F 78.1 °F 91% 29.82 in 10.0 mi NNW 8.1 mph - 0.08 in Thunderstorm Partly Cloudy
4:53 PM 80.1 °F 86.4 °F 78.1 °F 94% 29.83 in 10.0 mi NNW 5.8 mph - 0.08 in Thunderstorm Partly Cloudy
5:53 PM 77.0 °F - 73.0 °F 88% 29.84 in 7.0 mi SW 6.9 mph - 0.01 in Rain , Thunderstorm Light Rain
6:02 PM 75.9 °F - 73.0 °F 91% 29.83 in 1.0 mi SSE 5.8 mph - 0.11 in Rain , Thunderstorm Heavy Rain
6:13 PM 75.9 °F - 73.9 °F 94% 29.90 in 10.0 mi NNW 16.1 mph 23.0 mph 0.18 in Thunderstorm Thunderstorm
6:17 PM 75.0 °F - 73.0 °F 94% 29.90 in 1.0 mi NNW 47.2 mph 59.8 mph 0.21 in Rain , Thunderstorm Heavy Thunderstorms and Rain
6:21 PM 71.1 °F - 70.0 °F 96% 29.86 in 0.8 mi NNW 33.4 mph 59.8 mph 0.26 in Rain , Thunderstorm Heavy Thunderstorms and Rain
6:28 PM 72.0 °F - 70.0 °F 93% 29.89 in 0.8 mi NW 28.8 mph 49.5 mph 0.35 in Rain , Thunderstorm Heavy Thunderstorms and Rain
6:40 PM 75.0 °F - 73.0 °F 94% 29.91 in 1.0 mi NW 19.6 mph 39.1 mph 0.53 in Rain , Thunderstorm Heavy Thunderstorms and Rain
6:51 PM 73.4 °F - 69.8 °F 88% 29.88 in 1.2 mi WNW 8.1 mph 28.8 mph 0.69 in Rain , Thunderstorm Heavy Thunderstorms and Rain
6:53 PM 72.0 °F - 70.0 °F 93% 29.87 in 1.5 mi NW 6.9 mph 21.9 mph 0.72 in Rain , Thunderstorm Heavy Thunderstorms and Rain
7:00 PM 72.0 °F - 71.1 °F 97% 29.91 in 2.0 mi West 10.4 mph 17.3 mph 0.10 in Rain , Thunderstorm Heavy Thunderstorms and Rain
7:26 PM 73.0 °F - 72.0 °F 96% 29.89 in 9.0 mi NNE 5.8 mph - 0.44 in Rain , Thunderstorm Light Thunderstorms and Rain
7:53 PM 73.0 °F - 72.0 °F 96% 29.91 in 10.0 mi South 9.2 mph - 0.74 in Rain , Thunderstorm Light Rain
8:32 PM 73.9 °F - 72.0 °F 93% 29.90 in 10.0 mi SSW 8.1 mph - 0.34 in Rain , Thunderstorm Light Thunderstorms and Rain
8:53 PM 73.9 °F - 73.0 °F 97% 29.91 in 10.0 mi SW 8.1 mph - 0.49 in Rain , Thunderstorm Light Thunderstorms and Rain
9:25 PM 73.0 °F - 71.1 °F 93% 29.91 in 10.0 mi WSW 6.9 mph 17.3 mph 0.19 in Rain Light Rain
9:53 PM 73.0 °F - 71.1 °F 93% 29.90 in 10.0 mi WSW 4.6 mph - 0.32 in   Clear
10:53 PM 73.0 °F - 72.0 °F 96% 29.88 in 10.0 mi Calm Calm - 0.11 in   Clear
11:53 PM 73.9 °F - 73.0 °F 97% 29.88 in 10.0 mi West 3.5 mph - N/A   Clear